This is the latest recevied weather packets stored in our database for station/object KC8SWY-15. If no packets are shown the sender has not sent any weather packets the latest 10 day(s).
| Time | Temp. | Humidity | Pressure | Rain* | Wind** | Luminosity | Snow |
|---|---|---|---|---|---|---|---|
| 1788461432 | 25.56° C | 77% | 1014.1 hPa | 0.25 mm | - | - | - |
| 1788461132 | 26.11° C | 78% | 1014.3 hPa | 0.25 mm | - | - | - |
| 1788460832 | 26.11° C | 78% | 1014.3 hPa | 0.25 mm | - | - | - |
| 1788460532 | 26.11° C | 78% | 1014.4 hPa | 0.25 mm | - | - | - |
| 1788460232 | 26.67° C | 78% | 1014.5 hPa | 0.25 mm | - | - | - |
| 1788459932 | 26.67° C | 78% | 1014.6 hPa | 0.25 mm | - | - | - |
| 1788459632 | 27.22° C | 76% | 1014.6 hPa | 0.25 mm | - | - | - |
| 1788459332 | 28.33° C | 74% | 1014.6 hPa | 0.25 mm | - | - | - |
| 1788459032 | 28.89° C | 72% | 1014.3 hPa | 0 mm | - | - | - |
| 1788458732 | 29.44° C | 70% | 1013.9 hPa | 0 mm | - | - | - |
| 1788458432 | 29.44° C | 69% | 1013.5 hPa | 0 mm | - | - | - |
| 1788458132 | 29.44° C | 68% | 1013.4 hPa | 0 mm | - | - | - |
| 1788457857 | 29.44° C | 69% | 1013.4 hPa | 0 mm | - | - | - |
| 1788457532 | 30° C | 68% | 1013.3 hPa | 0 mm | - | - | - |
| 1788457232 | 30° C | 68% | 1013.3 hPa | 0 mm | - | - | - |
| 1788456932 | 30° C | 67% | 1013.3 hPa | 0 mm | - | - | - |
| 1788456632 | 30° C | 67% | 1013.2 hPa | 0 mm | - | - | - |
| 1788456332 | 30° C | 66% | 1013.1 hPa | 0 mm | - | - | - |
| 1788456032 | 30.56° C | 65% | 1012.9 hPa | 0 mm | - | - | - |
| 1788455732 | 31.11° C | 64% | 1012.8 hPa | 0 mm | - | - | - |
| 1788455432 | 31.11° C | 66% | 1012.7 hPa | 0 mm | - | - | - |
| 1788455132 | 31.11° C | 65% | 1012.5 hPa | 0 mm | - | - | - |
| 1788454832 | 31.11° C | 64% | 1012.3 hPa | 0 mm | - | - | - |
| 1788454532 | 31.67° C | 63% | 1012.2 hPa | 0 mm | - | - | - |
| 1788454232 | 31.67° C | 63% | 1012.2 hPa | 0 mm | - | - | - |
* Rain latest hour (hover to see other rain measurements)
** Current wind speed in m/s (hover to see current wind gust speed)